Location: Unnamed
(41.1546°N, 8.5392°W)
Time: 14:34:37
(UTC+01:00)

Envisat - Visible Passes

Search period start: 25 May 2022 00:00
Search period end: 04 June 2022 00:00
Orbit: 764 x 765 km, 98.2° (Epoch: 22 May)

Date Brightness Start Highest point End Pass type
(mag) Time Alt. Az. Time Alt. Az. Time Alt. Az.
25 May 5.7 04:51:14 10° ENE 04:53:37 13° E 04:56:00 10° ESE visible
27 May 5.3 05:15:01 10° NE 05:19:03 23° E 05:23:04 10° SSE visible
30 May 5.5 05:03:43 10° NE 05:07:11 18° E 05:10:38 10° SE visible
01 Jun 4.8 05:28:02 10° NNE 05:32:33 31° E 05:37:03 10° SSE visible
02 Jun 5.7 04:52:39 10° ENE 04:55:18 14° E 04:57:56 10° ESE visible
